Simultaneous Nadir Overpasses (SNOs) Predictions

Prediction of SNOs between GOES-15 and METOP-B Satellite Orbit:

Table of predicted SNOs for the next 14.0 days since TLE Epoch: 1/7/2017
Index Date Time (GOES-15) GOES-15 Lat,Lon METOP-B Lat,Lon Distance(km) Time Diff (sec)
1 01/07/2017 06:31:45 0.04,-134.60 0.04,-134.69 9.70 80
2 01/09/2017 18:27:16 -0.04,-134.68 -0.15,-134.25 48.92 80
3 01/11/2017 06:48:54 0.03,-134.79 -0.90,-138.83 461.96 80
4 01/12/2017 06:25:35 0.03,-134.83 0.26,-133.85 111.79 80
5 01/13/2017 18:47:05 -0.02,-134.85 0.77,-138.40 405.04 80
6 01/14/2017 18:23:45 -0.02,-134.89 -0.34,-133.40 168.94 80
7 01/16/2017 06:45:24 0.01,-134.99 -0.64,-138.00 341.95 80
8 01/17/2017 06:22:04 0.02,-135.03 0.48,-133.00 231.68 80
9 01/18/2017 18:43:34 -0.01,-135.04 0.54,-137.56 285.82 80
10 01/19/2017 18:20:13 -0.01,-135.08 -0.58,-132.56 287.79 80




NCC Satellite Simultaneous Nadir Overpasses (SNOs) Prediction Service
